Find Starlink 36647

NORAD ID: 67824 Int'l Des: 2026-033 Owner: SPXS Country: US Constellation: starlink operational
LEOCIRCULAR

Current View

Loading 3D Globe...

About Starlink 36647

Description loading...

Upcoming Passes

Passes for default location (London). Set your location on the main map for personalized predictions.

Altitude History

Loading altitude history...

Two-Line Element Set

1 67824U 26033D 26146.16048848 .00022439 00000-0 82187-3 0 9998
2 67824 42.9989 189.4172 0000868 261.4820 98.5933 15.27602990 16529
Epoch: May 26, 2026 • Age: 12 hours

Current Status

Altitude 491.0 km
Velocity 7.62 km/s
Sub-Earth Point -31.37°S, 18.85°E
Launch Date Feb 16, 2026
Age 0.2 years
Type internet

Technical Details

Classification Payload
Mass 575.00 kg
Dry Mass 530.00 kg
Total Mass 575.00 kg
Length 0.30 m
Diameter 4.10 m
Span 29.00 m
Shape Box + pan
Manufacturer SPXS
Bus Type Starlink V2MO
Phase Status In Orbit
Owner/State SPXS/US

Most Searched